SCP
0 0 0 0 0 0 0 0 0 0 0 0 0 0 0 0 0 0 0 0 1 1 1 1 1 1 1 1 1 1 1 1 1 1 0 0 0 0 0 0 0 0 0
0 0 0 0 0 0 0 0 0 0 0 0 0 0 0 0 0 0 0 1 1 1 1 2 2 1 1 1 1 1 0 0 1 1 0 0 0 0 0 0 0 0 0
0 0 0 0 0 0 0 0 0 0 0 0 0 0 0 0 0 0 0 0 1 0 1 1 1 1 1 1 1 0 1 0 0 1 0 0 0 0 0 0 0 0 0
0 0 0 0 0 0 0 0 0 0 0 0 0 0 0 0 0 0 0 0 0 0 0 0 1 1 1 1 1 1 1 1 0 1 0 0 0 0 0 0 0 0 0
0 0 0 0 0 0 0 0 0 0 0 0 0 0 0 0 0 0 0 0 0 0 0 0 0 0 0 1 1 1 1 1 1 0 0 0 0 0 0 0 0 0 0
0 0 0 0 0 0 0 0 0 0 0 0 0 0 0 0 0 0 0 0 0 0 0 0 0 0 0 0 0 1 1 1 1 1 0 0 0 0 0 0 0 0 0
0 0 0 0 0 0 0 0 -0 0 0 0 0 0 0 0 0 0 0 0 0 0 0 0 0 0 0 0 0 0 0 1 1 1 1 0 0 0 0 0 0 0 0
0 0 0 0 0 0 0 0 0 -0 0 0 0 0 0 0 0 0 0 0 0 0 0 0 0 0 0 0 0 0 0 0 0 0 1 1 1 1 0 0 0 0 0
0 0 0 0 0 0 0 -0 -0 -0 0 0 0 0 0 0 0 0 0 0 0 0 0 0 0 0 0 0 0 0 0 0 0 0 0 0 1 1 1 0 0 0 0
0 0 0 0 0 0 0 0 0 0 0 0 0 0 0 0 0 0 0 0 0 0 0 0 0 0 0 0 0 0 0 0 0 0 0 0 0 1 1 1 0 0 0
0 0 0 0 0 0 0 0 0 0 0 0 0 0 0 0 0 0 -0 0 0 0 0 0 0 0 0 0 0 0 0 0 0 0 0 0 0 0 1 1 1 1 0
0 0 0 0 0 0 0 0 0 0 0 0 0 0 0 0 0 0 0 0 0 0 0 0 0 0 0 0 0 0 0 0 0 0 0 0 0 0 0 0 1 1 1
0 0 0 0 0 0 0 0 0 0 0 0 0 0 0 0 0 0 0 0 0 0 0 0 0 0 0 0 0 0 0 0 0 0 0 0 0 0 0 0 0 0 0
0 0 0 0 0 0 0 0 0 0 0 0 0 0 0 0 0 0 0 0 0 0 0 0 0 0 0 0 0 0 0 0 0 0 0 0 0 0 0 0 0 0 0
0 0 0 0 0 0 0 0 0 0 0 0 0 0 0 0 0 0 0 0 0 0 0 0 0 0 0 0 0 0 0 0 0 0 0 0 0 0 0 0 0 0 0
0 0 0 0 0 0 0 0 0 0 0 0 0 0 0 0 0 0 0 0 0 0 0 0 0 0 0 0 0 0 0 0 0 0 0 0 0 0 0 0 0 0 0
0 0 0 0 0 0 0 0 0 0 0 0 0 0 0 0 0 0 0 0 0 0 0 0 0 0 0 0 0 0 0 0 0 0 0 0 0 0 0 0 0 0 0
0 0 0 0 0 0 0 0 0 0 0 0 0 0 0 0 0 0 0 0 0 0 0 0 0 0 0 0 -0 0 0 0 0 0 0 0 0 0 0 0 0 0 0
0 0 0 0 0 0 0 0 0 0 0 0 0 0 0 0 0 0 0 0 0 0 0 0 0 0 0 0 0 0 0 0 0 0 0 0 0 0 0 0 0 0 0
0 0 0 0 0 0 0 0 0 0 0 0 0 0 0 0 0 0 0 0 0 0 0 0 0 0 0 0 0 0 0 0 0 0 0 0 0 0 0 0 0 0 0
0 0 0 0 0 0 0 0 0 0 0 0 0 0 0 0 0 0 0 0 0 0 0 0 0 0 0 0 0 0 0 0 0 0 0 0 0 0 0 0 0 0 0
0 0 0 0 0 0 0 0 0 0 0 0 0 0 0 0 0 0 0 0 0 0 0 0 0 0 0 0 0 0 0 0 0 0 0 0 0 0 0 0 0 0 0
0 0 0 0 0 0 0 0 0 0 0 0 0 0 0 0 0 0 -0 -0 0 0 0 0 0 0 0 0 0 0 0 0 0 0 0 0 0 0 0 0 0 0 0
0 0 0 0 0 0 0 0 0 0 0 0 0 0 0 0 0 0 0 0 0 0 0 0 0 0 0 0 0 0 0 0 0 0 0 0 0 0 0 0 0 0 0
0 0 0 0 0 0 0 0 0 0 0 0 0 0 0 0 0 0 0 0 0 0 0 0 0 -0 -0 -0 -0 0 0 0 0 0 0 -0 0 0 0 0 0 0 0
0 0 0 0 0 0 0 0 0 0 0 0 0 0 0 0 0 0 0 0 0 0 0 0 0 0 0 0 0 0 0 0 0 0 0 0 0 0 0 0 0 0 0
Wind_Speed_500mb
16 21 28 36 41 43 43 42 41 40 39 37 39 41 43 44 45 45 42 39 37 32 34 34 35 30 31 37 42 38 38 40 33 33 30 28 27 25 23 24 27 31 34
16 22 32 39 41 39 37 38 41 42 41 40 36 36 37 37 37 39 39 37 40 39 33 33 36 34 29 32 41 39 40 42 38 38 35 33 32 29 28 26 27 29 33
21 29 33 30 28 29 31 30 30 31 32 31 30 29 28 23 19 21 25 27 29 34 36 32 33 34 33 31 35 36 36 39 41 42 44 37 36 34 32 32 28 27 31
21 21 22 23 27 30 33 34 35 33 33 30 26 22 19 14 16 19 19 18 19 22 22 23 25 29 34 41 47 50 46 46 44 47 46 45 40 37 37 37 37 30 30
14 18 24 28 30 32 32 35 37 39 38 32 25 14 16 18 20 21 24 25 28 29 31 27 24 23 24 29 38 44 46 48 47 47 45 44 43 41 40 41 42 37 35
20 23 25 26 29 31 35 38 40 42 42 38 23 10 8 16 17 18 23 23 24 23 26 29 28 24 24 25 24 31 34 34 33 40 44 42 41 47 44 41 42 42 41
21 20 25 28 31 34 37 39 41 44 42 41 35 14 3 7 27 21 28 29 30 29 25 24 24 24 23 21 21 20 21 30 32 31 33 37 40 40 43 43 42 45 46
21 23 26 29 30 31 34 39 42 43 44 47 47 27 21 11 31 15 31 37 33 30 29 26 28 26 23 22 21 20 24 28 29 30 30 32 35 38 39 40 43 45 47
21 22 25 27 29 32 37 40 42 43 41 41 44 36 17 20 53 39 44 44 43 35 29 29 28 29 28 26 23 22 23 24 28 33 39 38 39 38 37 38 42 41 44
18 19 21 23 27 29 31 33 34 36 36 37 34 32 27 29 33 33 53 55 48 42 36 34 32 29 29 31 29 28 30 31 30 30 29 33 40 41 43 42 45 48 46
14 17 18 20 24 29 31 32 33 35 35 33 33 32 34 38 41 42 53 70 63 50 42 37 39 38 36 37 34 33 34 35 35 34 34 32 31 34 38 41 43 45 46
11 14 14 21 29 33 35 35 34 33 34 35 30 31 34 38 38 39 47 61 66 62 48 38 42 43 43 44 43 37 34 36 38 37 35 35 34 32 31 33 37 42 44
8 12 15 20 26 31 32 32 32 31 29 26 30 39 37 37 34 39 44 48 54 60 52 44 29 41 43 43 46 45 41 33 35 36 33 31 32 32 31 32 32 34 39
11 13 17 23 29 32 34 35 34 33 25 26 32 38 35 34 37 38 40 43 46 45 49 46 41 41 33 39 40 39 38 35 34 35 32 29 28 29 28 27 29 32 33
12 15 20 26 30 33 36 35 30 27 25 26 28 28 34 39 43 34 34 32 30 28 37 40 48 40 36 31 38 37 35 31 30 30 28 24 24 26 27 28 23 25 29
14 19 24 28 31 32 34 31 24 20 20 21 23 31 39 43 35 28 26 28 28 28 23 33 40 46 45 39 33 36 37 34 35 33 27 26 27 25 24 23 21 20 23
19 17 22 26 34 37 35 29 23 21 21 22 27 31 35 39 34 28 24 22 29 32 34 38 38 43 48 51 42 39 40 40 39 41 41 30 32 28 26 23 24 22 21
18 19 24 30 35 35 28 21 19 18 22 26 29 31 33 32 29 25 24 27 29 31 38 45 50 51 51 51 54 52 46 46 47 40 42 36 30 36 34 29 28 20 20
16 15 27 30 30 27 21 19 21 24 26 28 29 30 34 35 32 29 29 30 32 34 39 46 52 51 52 51 56 53 48 44 45 49 40 36 36 32 29 35 34 34 25
15 22 27 27 22 16 18 19 22 23 25 27 29 33 35 34 32 30 29 32 40 44 42 42 45 47 48 48 47 51 51 45 45 42 38 33 26 30 26 20 34 34 31
17 23 22 15 11 13 16 21 24 28 31 32 33 33 29 25 24 27 29 36 39 37 36 39 42 44 45 46 48 46 49 54 46 43 44 35 35 28 22 20 27 34 36
18 21 11 8 9 14 17 24 28 31 31 31 32 28 24 22 23 20 26 32 30 32 34 39 39 42 45 45 45 45 47 53 56 45 60 51 36 31 21 15 13 16 28
20 13 5 5 9 13 19 22 24 26 28 26 24 25 20 18 24 30 31 28 24 23 33 38 36 39 43 42 46 44 46 48 48 49 46 49 35 26 19 10 12 13 15
10 1 1 6 8 13 15 19 20 20 19 21 24 25 25 27 31 35 35 35 30 30 29 28 32 36 34 41 39 42 47 45 43 39 36 35 32 29 15 4 12 14 12
6 4 2 1 7 9 13 16 18 15 13 19 22 26 27 28 31 34 35 34 32 31 29 30 34 34 25 26 33 37 40 43 43 46 24 42 35 37 17 6 8 8 10
8 10 6 1 4 7 9 14 18 17 16 18 17 22 24 32 39 42 40 39 35 34 38 40 40 29 24 24 30 34 38 41 44 42 37 40 35 30 18 9 11 9 7
Wind_Direction_500mb
311 324 327 329 330 328 323 321 321 318 314 307 300 296 289 286 286 287 288 291 293 293 284 278 279 275 272 278 278 279 280 274 270 267 270 275 282 286 283 268 259 251 248
309 317 322 325 324 326 331 333 332 330 328 326 319 308 303 300 292 287 287 289 286 287 283 278 281 283 282 265 269 277 277 270 268 269 266 268 273 277 282 278 267 257 253
320 323 327 332 341 345 345 344 342 340 336 337 331 328 323 325 318 311 305 298 285 278 277 276 275 278 279 272 269 274 266 265 262 270 268 266 270 271 275 279 276 269 257
332 346 350 359 7 4 1 360 2 3 4 0 354 356 2 20 32 24 11 352 328 310 302 291 284 275 269 267 267 270 263 260 264 265 266 265 268 269 270 270 271 271 269
24 25 27 25 21 16 13 14 11 10 9 13 12 23 38 44 20 1 349 351 344 335 325 324 309 303 293 284 277 269 262 270 269 261 254 260 266 270 269 266 266 266 268
52 42 36 31 25 19 20 19 16 14 12 17 22 20 71 47 10 5 4 355 331 326 319 318 314 315 300 301 293 276 265 271 276 264 262 265 268 269 266 265 266 265 262
64 56 47 39 32 26 25 21 18 15 11 9 15 45 55 336 25 12 7 9 10 4 355 339 333 321 321 308 299 291 284 277 278 274 269 267 267 271 266 263 265 266 261
71 55 47 44 41 35 28 25 25 27 23 16 17 14 359 4 340 6 360 2 3 1 355 348 343 341 336 320 310 298 281 277 279 273 277 272 268 268 268 267 267 264 262
69 53 45 42 35 30 27 26 26 26 29 30 29 31 3 347 346 341 351 356 1 3 360 355 347 337 333 331 321 315 307 298 289 281 279 280 279 274 270 268 266 268 262
65 51 39 31 29 24 18 18 17 16 15 16 16 21 21 7 356 332 342 346 350 354 359 358 345 339 330 325 326 321 316 314 308 301 295 288 282 277 271 268 266 264 263
55 35 19 16 12 9 5 2 359 0 358 357 358 358 352 351 351 345 334 339 337 343 345 350 348 345 336 329 323 321 323 321 315 308 303 302 297 286 272 263 261 264 264
33 13 5 1 360 357 352 347 345 343 344 342 341 348 350 351 345 342 333 332 332 333 339 342 342 336 340 341 341 327 321 319 315 315 311 302 298 301 286 271 261 261 263
347 342 349 350 347 342 339 336 333 332 327 330 335 332 335 342 341 336 332 330 327 328 331 339 340 334 331 335 341 340 332 324 317 317 319 308 300 295 295 280 272 266 262
313 317 327 338 337 332 332 331 330 331 327 318 324 320 328 334 332 330 332 329 325 326 328 336 333 338 337 340 337 335 335 331 326 322 317 312 306 292 296 301 281 269 266
293 301 316 326 330 332 331 329 328 325 323 323 329 337 339 340 332 324 327 329 333 327 330 333 336 342 348 339 329 325 325 328 329 326 323 316 302 305 309 294 303 289 274
263 294 309 323 330 332 329 330 329 327 325 327 329 331 339 342 342 336 333 334 333 326 320 327 329 334 337 330 330 319 314 310 306 309 313 319 309 305 308 300 296 301 306
261 284 305 317 327 328 327 322 319 322 323 323 323 328 335 335 333 332 328 334 328 325 324 318 320 321 322 325 326 318 312 311 301 305 303 308 304 305 308 307 296 301 308
274 298 308 324 329 334 338 335 331 332 328 326 331 333 339 344 342 334 327 322 325 327 326 322 321 323 323 323 323 320 310 303 299 300 298 300 316 301 300 297 310 302 318
273 308 321 325 335 338 339 339 335 333 330 331 335 339 338 337 333 328 326 324 322 323 322 320 319 320 319 322 320 322 322 315 302 292 290 291 288 308 307 296 300 293 293
300 315 319 330 335 348 347 342 341 339 339 338 334 331 328 327 328 331 333 331 329 324 318 318 322 326 326 327 327 333 336 339 332 320 298 288 281 273 294 298 295 293 278
306 325 327 334 345 347 342 342 342 336 331 328 331 337 342 335 326 327 337 331 328 329 337 336 337 341 342 343 342 347 341 340 343 355 343 317 287 278 277 272 288 287 290
323 334 331 339 341 342 343 339 333 333 336 341 346 353 354 1 356 351 337 328 330 334 337 336 339 341 343 343 343 338 333 334 334 344 334 335 322 281 277 280 300 287 283
317 313 318 340 342 344 342 343 352 358 5 12 19 16 19 3 339 338 345 343 341 330 323 327 328 333 331 338 332 335 336 329 323 331 331 339 348 323 285 271 278 298 248
295 227 335 348 1 358 13 16 10 18 33 25 11 6 6 7 3 358 356 353 346 337 336 338 337 338 329 330 332 331 334 331 332 333 341 335 344 342 344 316 250 278 269
189 211 214 23 1 19 19 27 28 32 31 10 14 18 17 11 5 357 349 347 345 343 341 333 336 336 339 346 346 347 350 345 341 347 351 339 334 335 359 97 346 263 290
214 188 190 205 38 36 38 38 35 33 26 33 27 19 12 1 350 341 336 336 338 340 338 338 336 337 327 334 336 344 349 349 347 344 350 334 341 335 336 14 4 358 290
Wind_Speed_850mb
16 21 28 36 41 43 43 42 41 40 39 37 39 41 43 44 45 45 42 39 37 32 34 34 35 30 31 37 42 38 38 40 33 33 30 28 27 25 23 24 27 31 34
16 22 32 39 41 39 37 38 41 42 41 40 36 36 37 37 37 39 39 37 40 39 33 33 36 34 29 32 41 39 40 42 38 38 35 33 32 29 28 26 27 29 33
21 29 33 30 28 29 31 30 30 31 32 31 30 29 28 23 19 21 25 27 29 34 36 32 33 34 33 31 35 36 36 39 41 42 44 37 36 34 32 32 28 27 31
21 21 22 23 27 30 33 34 35 33 33 30 26 22 19 14 16 19 19 18 19 22 22 23 25 29 34 41 47 50 46 46 44 47 46 45 40 37 37 37 37 30 30
14 18 24 28 30 32 32 35 37 39 38 32 25 14 16 18 20 21 24 25 28 29 31 27 24 23 24 29 38 44 46 48 47 47 45 44 43 41 40 41 42 37 35
20 23 25 26 29 31 35 38 40 42 42 38 23 10 8 16 17 18 23 23 24 23 26 29 28 24 24 25 24 31 34 34 33 40 44 42 41 47 44 41 42 42 41
21 20 25 28 31 34 37 39 41 44 42 41 35 14 3 7 27 21 28 29 30 29 25 24 24 24 23 21 21 20 21 30 32 31 33 37 40 40 43 43 42 45 46
21 23 26 29 30 31 34 39 42 43 44 47 47 27 21 11 31 15 31 37 33 30 29 26 28 26 23 22 21 20 24 28 29 30 30 32 35 38 39 40 43 45 47
21 22 25 27 29 32 37 40 42 43 41 41 44 36 17 20 53 39 44 44 43 35 29 29 28 29 28 26 23 22 23 24 28 33 39 38 39 38 37 38 42 41 44
18 19 21 23 27 29 31 33 34 36 36 37 34 32 27 29 33 33 53 55 48 42 36 34 32 29 29 31 29 28 30 31 30 30 29 33 40 41 43 42 45 48 46
14 17 18 20 24 29 31 32 33 35 35 33 33 32 34 38 41 42 53 70 63 50 42 37 39 38 36 37 34 33 34 35 35 34 34 32 31 34 38 41 43 45 46
11 14 14 21 29 33 35 35 34 33 34 35 30 31 34 38 38 39 47 61 66 62 48 38 42 43 43 44 43 37 34 36 38 37 35 35 34 32 31 33 37 42 44
8 12 15 20 26 31 32 32 32 31 29 26 30 39 37 37 34 39 44 48 54 60 52 44 29 41 43 43 46 45 41 33 35 36 33 31 32 32 31 32 32 34 39
11 13 17 23 29 32 34 35 34 33 25 26 32 38 35 34 37 38 40 43 46 45 49 46 41 41 33 39 40 39 38 35 34 35 32 29 28 29 28 27 29 32 33
12 15 20 26 30 33 36 35 30 27 25 26 28 28 34 39 43 34 34 32 30 28 37 40 48 40 36 31 38 37 35 31 30 30 28 24 24 26 27 28 23 25 29
14 19 24 28 31 32 34 31 24 20 20 21 23 31 39 43 35 28 26 28 28 28 23 33 40 46 45 39 33 36 37 34 35 33 27 26 27 25 24 23 21 20 23
19 17 22 26 34 37 35 29 23 21 21 22 27 31 35 39 34 28 24 22 29 32 34 38 38 43 48 51 42 39 40 40 39 41 41 30 32 28 26 23 24 22 21
18 19 24 30 35 35 28 21 19 18 22 26 29 31 33 32 29 25 24 27 29 31 38 45 50 51 51 51 54 52 46 46 47 40 42 36 30 36 34 29 28 20 20
16 15 27 30 30 27 21 19 21 24 26 28 29 30 34 35 32 29 29 30 32 34 39 46 52 51 52 51 56 53 48 44 45 49 40 36 36 32 29 35 34 34 25
15 22 27 27 22 16 18 19 22 23 25 27 29 33 35 34 32 30 29 32 40 44 42 42 45 47 48 48 47 51 51 45 45 42 38 33 26 30 26 20 34 34 31
17 23 22 15 11 13 16 21 24 28 31 32 33 33 29 25 24 27 29 36 39 37 36 39 42 44 45 46 48 46 49 54 46 43 44 35 35 28 22 20 27 34 36
18 21 11 8 9 14 17 24 28 31 31 31 32 28 24 22 23 20 26 32 30 32 34 39 39 42 45 45 45 45 47 53 56 45 60 51 36 31 21 15 13 16 28
20 13 5 5 9 13 19 22 24 26 28 26 24 25 20 18 24 30 31 28 24 23 33 38 36 39 43 42 46 44 46 48 48 49 46 49 35 26 19 10 12 13 15
10 1 1 6 8 13 15 19 20 20 19 21 24 25 25 27 31 35 35 35 30 30 29 28 32 36 34 41 39 42 47 45 43 39 36 35 32 29 15 4 12 14 12
6 4 2 1 7 9 13 16 18 15 13 19 22 26 27 28 31 34 35 34 32 31 29 30 34 34 25 26 33 37 40 43 43 46 24 42 35 37 17 6 8 8 10
8 10 6 1 4 7 9 14 18 17 16 18 17 22 24 32 39 42 40 39 35 34 38 40 40 29 24 24 30 34 38 41 44 42 37 40 35 30 18 9 11 9 7
Wind_Direction_850mb
311 324 327 329 330 328 323 321 321 318 314 307 300 296 289 286 286 287 288 291 293 293 284 278 279 275 272 278 278 279 280 274 270 267 270 275 282 286 283 268 259 251 248
309 317 322 325 324 326 331 333 332 330 328 326 319 308 303 300 292 287 287 289 286 287 283 278 281 283 282 265 269 277 277 270 268 269 266 268 273 277 282 278 267 257 253
320 323 327 332 341 345 345 344 342 340 336 337 331 328 323 325 318 311 305 298 285 278 277 276 275 278 279 272 269 274 266 265 262 270 268 266 270 271 275 279 276 269 257
332 346 350 359 7 4 1 360 2 3 4 0 354 356 2 20 32 24 11 352 328 310 302 291 284 275 269 267 267 270 263 260 264 265 266 265 268 269 270 270 271 271 269
24 25 27 25 21 16 13 14 11 10 9 13 12 23 38 44 20 1 349 351 344 335 325 324 309 303 293 284 277 269 262 270 269 261 254 260 266 270 269 266 266 266 268
52 42 36 31 25 19 20 19 16 14 12 17 22 20 71 47 10 5 4 355 331 326 319 318 314 315 300 301 293 276 265 271 276 264 262 265 268 269 266 265 266 265 262
64 56 47 39 32 26 25 21 18 15 11 9 15 45 55 336 25 12 7 9 10 4 355 339 333 321 321 308 299 291 284 277 278 274 269 267 267 271 266 263 265 266 261
71 55 47 44 41 35 28 25 25 27 23 16 17 14 359 4 340 6 360 2 3 1 355 348 343 341 336 320 310 298 281 277 279 273 277 272 268 268 268 267 267 264 262
69 53 45 42 35 30 27 26 26 26 29 30 29 31 3 347 346 341 351 356 1 3 360 355 347 337 333 331 321 315 307 298 289 281 279 280 279 274 270 268 266 268 262
65 51 39 31 29 24 18 18 17 16 15 16 16 21 21 7 356 332 342 346 350 354 359 358 345 339 330 325 326 321 316 314 308 301 295 288 282 277 271 268 266 264 263
55 35 19 16 12 9 5 2 359 0 358 357 358 358 352 351 351 345 334 339 337 343 345 350 348 345 336 329 323 321 323 321 315 308 303 302 297 286 272 263 261 264 264
33 13 5 1 360 357 352 347 345 343 344 342 341 348 350 351 345 342 333 332 332 333 339 342 342 336 340 341 341 327 321 319 315 315 311 302 298 301 286 271 261 261 263
347 342 349 350 347 342 339 336 333 332 327 330 335 332 335 342 341 336 332 330 327 328 331 339 340 334 331 335 341 340 332 324 317 317 319 308 300 295 295 280 272 266 262
313 317 327 338 337 332 332 331 330 331 327 318 324 320 328 334 332 330 332 329 325 326 328 336 333 338 337 340 337 335 335 331 326 322 317 312 306 292 296 301 281 269 266
293 301 316 326 330 332 331 329 328 325 323 323 329 337 339 340 332 324 327 329 333 327 330 333 336 342 348 339 329 325 325 328 329 326 323 316 302 305 309 294 303 289 274
263 294 309 323 330 332 329 330 329 327 325 327 329 331 339 342 342 336 333 334 333 326 320 327 329 334 337 330 330 319 314 310 306 309 313 319 309 305 308 300 296 301 306
261 284 305 317 327 328 327 322 319 322 323 323 323 328 335 335 333 332 328 334 328 325 324 318 320 321 322 325 326 318 312 311 301 305 303 308 304 305 308 307 296 301 308
274 298 308 324 329 334 338 335 331 332 328 326 331 333 339 344 342 334 327 322 325 327 326 322 321 323 323 323 323 320 310 303 299 300 298 300 316 301 300 297 310 302 318
273 308 321 325 335 338 339 339 335 333 330 331 335 339 338 337 333 328 326 324 322 323 322 320 319 320 319 322 320 322 322 315 302 292 290 291 288 308 307 296 300 293 293
300 315 319 330 335 348 347 342 341 339 339 338 334 331 328 327 328 331 333 331 329 324 318 318 322 326 326 327 327 333 336 339 332 320 298 288 281 273 294 298 295 293 278
306 325 327 334 345 347 342 342 342 336 331 328 331 337 342 335 326 327 337 331 328 329 337 336 337 341 342 343 342 347 341 340 343 355 343 317 287 278 277 272 288 287 290
323 334 331 339 341 342 343 339 333 333 336 341 346 353 354 1 356 351 337 328 330 334 337 336 339 341 343 343 343 338 333 334 334 344 334 335 322 281 277 280 300 287 283
317 313 318 340 342 344 342 343 352 358 5 12 19 16 19 3 339 338 345 343 341 330 323 327 328 333 331 338 332 335 336 329 323 331 331 339 348 323 285 271 278 298 248
295 227 335 348 1 358 13 16 10 18 33 25 11 6 6 7 3 358 356 353 346 337 336 338 337 338 329 330 332 331 334 331 332 333 341 335 344 342 344 316 250 278 269
189 211 214 23 1 19 19 27 28 32 31 10 14 18 17 11 5 357 349 347 345 343 341 333 336 336 339 346 346 347 350 345 341 347 351 339 334 335 359 97 346 263 290
214 188 190 205 38 36 38 38 35 33 26 33 27 19 12 1 350 341 336 336 338 340 338 338 336 337 327 334 336 344 349 349 347 344 350 334 341 335 336 14 4 358 290